Location: Byszew
(52.1813°N, 19.2693°E)
Time: 20:50:39
(UTC+00:00)

Cosmos 1980 Rocket - Pass Details

Date: 03 March 2021
Orbit: 828 x 851 km, 71.0° (Epoch: 15 April)

Event Time Altitude Azimuth Distance (km) Brightness Sun altitude
Rises 17:11:03 0° 226° (SW) 3,391 6.1 -7.7°
Reaches altitude 10° 17:13:33 10° 231° (SW) 2,463 5.5 -8.0°
Maximum altitude 17:19:05 53° 308° (NW) 1,035 3.1 -8.9°
Drops below altitude 10° 17:24:40 10° 25° (NNE) 2,488 4.4 -9.7°
Sets 17:27:13 0° 31° (NNE) 3,429 5.1 -10.1°
